ITY1364 LIPQ-LIRF

Flight info

Callsign ITY1364
Flight time N/A
Altitude 37000
Route ROSKA DCT BELOV DCT MOGPU DCT NIKMA DCT RITEB
Aircraft A320/M-SDE3FGHIRWY/LB1

Departure

Time 2026-04-25 11:16
Airport Trieste Airport (LIPQ)

Arrival

Time N/A
Airport Rome–Fiumicino Leonardo da Vinci International Airport (LIRF)
Time Latitude Longitude Altitude Speed Heading
2026-04-25 10:56 45.82186 13.48396 46 ft 0 kts 171°
2026-04-25 11:08 45.82191 13.48395 45 ft 4 kts 171°
2026-04-25 11:09 45.82217 13.48388 45 ft 4 kts 167°
2026-04-25 11:09 45.82243 13.48377 44 ft 4 kts 149°
2026-04-25 11:09 45.82261 13.48353 42 ft 4 kts 102°
2026-04-25 11:09 45.82262 13.48340 41 ft 0 kts 82°
2026-04-25 11:12 45.82262 13.48341 41 ft 0 kts 82°
2026-04-25 11:13 45.82262 13.48343 41 ft 2 kts 82°
2026-04-25 11:14 45.82273 13.48441 45 ft 12 kts 81°
2026-04-25 11:14 45.82297 13.48553 43 ft 12 kts 46°
2026-04-25 11:14 45.82383 13.48572 45 ft 17 kts 359°
2026-04-25 11:14 45.82519 13.48575 45 ft 20 kts
2026-04-25 11:15 45.82652 13.48575 45 ft 18 kts 359°
2026-04-25 11:15 45.82761 13.48555 44 ft 14 kts 320°
2026-04-25 11:15 45.82777 13.48450 43 ft 0 kts 270°
2026-04-25 11:16 45.82781 13.47590 47 ft 109 kts 270°
2026-04-25 11:16 45.82790 13.46219 74 ft 160 kts 269°
2026-04-25 11:16 45.82812 13.44630 712 ft 158 kts 269°
2026-04-25 11:17 45.82823 13.43021 1394 ft 164 kts 267°
2026-04-25 11:17 45.82812 13.41309 1823 ft 182 kts 268°
2026-04-25 11:17 45.82791 13.39387 2251 ft 202 kts 268°
2026-04-25 11:17 45.82768 13.37996 2497 ft 220 kts 267°
2026-04-25 11:18 45.82731 13.35667 2965 ft 246 kts 267°
2026-04-25 11:18 45.82689 13.33129 3663 ft 259 kts 269°
2026-04-25 11:18 45.82669 13.30534 4047 ft 263 kts 273°
2026-04-25 11:18 45.83276 13.28142 4015 ft 260 kts 307°
2026-04-25 11:19 45.84674 13.26504 4007 ft 263 kts 332°
2026-04-25 11:19 45.86451 13.25823 4025 ft 268 kts 357°
2026-04-25 11:19 45.88309 13.26371 4703 ft 278 kts 25°
2026-04-25 11:19 45.89824 13.28074 5776 ft 281 kts 51°
2026-04-25 11:20 45.90594 13.30639 6693 ft 286 kts 83°
2026-04-25 11:20 45.90341 13.33470 7577 ft 290 kts 114°
2026-04-25 11:20 45.89243 13.35904 8466 ft 292 kts 128°
2026-04-25 11:20 45.87949 13.38179 9334 ft 296 kts 138°
2026-04-25 11:21 45.86219 13.39779 10143 ft 299 kts 161°
2026-04-25 11:21 45.84156 13.40299 10702 ft 310 kts 185°
2026-04-25 11:21 45.82034 13.39489 11025 ft 326 kts 211°
2026-04-25 11:21 45.80129 13.37653 11659 ft 333 kts 217°
2026-04-25 11:22 45.78211 13.35735 12435 ft 338 kts 217°
2026-04-25 11:22 45.76267 13.33818 13231 ft 342 kts 216°
2026-04-25 11:22 45.74289 13.31884 13994 ft 346 kts 216°
2026-04-25 11:22 45.72293 13.29940 14694 ft 349 kts 216°
2026-04-25 11:23 45.70403 13.27836 15390 ft 349 kts 225°
2026-04-25 11:23 45.68748 13.25280 16107 ft 351 kts 230°
2026-04-25 11:23 45.67122 13.22669 16822 ft 353 kts 230°
2026-04-25 11:23 45.65487 13.20041 17528 ft 355 kts 230°
2026-04-25 11:24 45.63742 13.17508 18216 ft 359 kts 222°
2026-04-25 11:24 45.61696 13.15403 18832 ft 363 kts 216°
2026-04-25 11:24 45.59594 13.13372 19423 ft 366 kts 216°
2026-04-25 11:24 45.57481 13.11332 19994 ft 369 kts 216°
2026-04-25 11:25 45.55347 13.09268 20606 ft 372 kts 216°
2026-04-25 11:25 45.53201 13.07193 21189 ft 375 kts 216°
2026-04-25 11:25 45.51032 13.05091 21777 ft 377 kts 216°
2026-04-25 11:25 45.48855 13.02980 22353 ft 380 kts 216°
2026-04-25 11:26 45.46657 13.00848 22932 ft 383 kts 216°
2026-04-25 11:26 45.44435 12.98696 23507 ft 386 kts 216°
2026-04-25 11:26 45.42199 12.96535 23980 ft 390 kts 216°
2026-04-25 11:26 45.39944 12.94360 24412 ft 393 kts 216°
2026-04-25 11:27 45.37702 12.92202 24852 ft 396 kts 216°
2026-04-25 11:27 45.35411 12.90003 25296 ft 398 kts 216°
2026-04-25 11:27 45.33066 12.87876 25725 ft 402 kts 210°
2026-04-25 11:27 45.31349 12.86736 26011 ft 405 kts 203°
2026-04-25 11:28 45.27705 12.85413 26548 ft 412 kts 190°
2026-04-25 11:28 45.24844 12.84873 26958 ft 415 kts 190°
2026-04-25 11:28 45.21978 12.84330 27345 ft 417 kts 190°
2026-04-25 11:28 45.19093 12.83778 27740 ft 420 kts 190°
2026-04-25 11:29 45.16190 12.83215 28128 ft 422 kts 190°
2026-04-25 11:29 45.13270 12.82644 28510 ft 424 kts 190°
2026-04-25 11:29 45.10336 12.82069 28887 ft 427 kts 190°
2026-04-25 11:29 45.07385 12.81496 29249 ft 429 kts 190°
2026-04-25 11:30 45.04419 12.80923 29585 ft 431 kts 189°
2026-04-25 11:30 45.01436 12.80352 29927 ft 434 kts 189°
2026-04-25 11:30 44.98436 12.79777 30240 ft 436 kts 189°
2026-04-25 11:30 44.95455 12.79204 30518 ft 438 kts 189°
2026-04-25 11:31 44.92384 12.78610 30807 ft 440 kts 189°
2026-04-25 11:31 44.89340 12.78021 31081 ft 442 kts 189°
2026-04-25 11:31 44.86330 12.77441 31344 ft 443 kts 189°
2026-04-25 11:31 44.83262 12.76851 31586 ft 445 kts 189°
2026-04-25 11:32 44.80190 12.76261 31929 ft 445 kts 189°
2026-04-25 11:32 44.77120 12.75674 32297 ft 443 kts 189°
2026-04-25 11:32 44.74068 12.75097 32671 ft 442 kts 189°
2026-04-25 11:32 44.71025 12.74523 33036 ft 441 kts 189°
2026-04-25 11:33 44.67986 12.73944 33404 ft 440 kts 189°
2026-04-25 11:33 44.64957 12.73362 33756 ft 439 kts 189°
2026-04-25 11:33 44.61925 12.72781 34113 ft 438 kts 189°
2026-04-25 11:33 44.58905 12.72207 34426 ft 438 kts 189°
2026-04-25 11:34 44.55896 12.71638 34730 ft 437 kts 189°
2026-04-25 11:34 44.52920 12.70844 35016 ft 435 kts 196°
2026-04-25 11:34 44.49997 12.69758 35285 ft 434 kts 196°
2026-04-25 11:34 44.47073 12.68672 35541 ft 434 kts 196°
2026-04-25 11:35 44.44158 12.67593 35791 ft 434 kts 196°
2026-04-25 11:35 44.41235 12.66515 36043 ft 433 kts 196°
2026-04-25 11:35 44.38319 12.65446 36294 ft 433 kts 196°
2026-04-25 11:35 44.35407 12.64380 36537 ft 433 kts 196°
2026-04-25 11:36 44.32494 12.63315 36779 ft 432 kts 196°
2026-04-25 11:36 44.29588 12.62250 37009 ft 432 kts 196°
2026-04-25 11:36 44.23784 12.60112 37088 ft 430 kts 195°
2026-04-25 11:37 44.18010 12.57996 37081 ft 429 kts 195°
2026-04-25 11:37 44.12237 12.55896 37088 ft 429 kts 195°
2026-04-25 11:38 44.06504 12.53802 37087 ft 428 kts 195°
2026-04-25 11:38 44.00737 12.51708 37078 ft 429 kts 195°
2026-04-25 11:39 43.94962 12.49608 37091 ft 429 kts 195°
2026-04-25 11:39 43.89188 12.47503 37078 ft 429 kts 195°
2026-04-25 11:40 43.83384 12.45400 37079 ft 429 kts 195°
2026-04-25 11:40 43.77604 12.43317 37091 ft 429 kts 195°
2026-04-25 11:41 43.71859 12.41254 37089 ft 429 kts 195°
2026-04-25 11:41 43.66079 12.39170 37096 ft 429 kts 195°
2026-04-25 11:42 43.60308 12.37096 37098 ft 428 kts 195°
2026-04-25 11:42 43.54540 12.35032 37095 ft 428 kts 195°
2026-04-25 11:43 43.48761 12.32968 37092 ft 429 kts 194°
2026-04-25 11:43 43.42985 12.30909 37087 ft 429 kts 195°
2026-04-25 11:44 43.37209 12.28858 37102 ft 429 kts 194°
2026-04-25 11:44 43.31423 12.26802 37101 ft 429 kts 194°
2026-04-25 11:45 43.25637 12.24739 37088 ft 430 kts 194°
2026-04-25 11:45 43.19846 12.22689 37105 ft 430 kts 194°
2026-04-25 11:46 43.14052 12.20651 37104 ft 430 kts 194°
2026-04-25 11:46 43.08248 12.18611 37093 ft 431 kts 192°
2026-04-25 11:47 43.02306 12.17832 37084 ft 430 kts 181°
2026-04-25 11:47 42.96323 12.17573 37083 ft 430 kts 181°
2026-04-25 11:48 42.90326 12.17299 37095 ft 431 kts 181°
2026-04-25 11:48 42.84364 12.17022 37087 ft 431 kts 181°
2026-04-25 11:49 42.78367 12.16714 37086 ft 432 kts 185°
2026-04-25 11:49 42.75425 12.15901 37081 ft 433 kts 198°
2026-04-25 11:49 42.72694 12.14190 37086 ft 433 kts 212°
2026-04-25 11:50 42.70324 12.11664 37081 ft 434 kts 225°
2026-04-25 11:50 42.68408 12.08430 36882 ft 437 kts 238°
2026-04-25 11:50 42.67110 12.04762 36409 ft 437 kts 251°
2026-04-25 11:50 42.66195 12.00825 35951 ft 437 kts 252°
2026-04-25 11:51 42.65279 11.96898 35502 ft 435 kts 251°
2026-04-25 11:51 42.64359 11.93007 35061 ft 431 kts 251°
2026-04-25 11:51 42.63441 11.89151 34625 ft 428 kts 251°
2026-04-25 11:51 42.62525 11.85320 34191 ft 424 kts 251°
2026-04-25 11:52 42.61612 11.81522 33718 ft 421 kts 251°
2026-04-25 11:52 42.60705 11.77758 33230 ft 419 kts 251°
2026-04-25 11:52 42.59804 11.74008 32754 ft 416 kts 251°
2026-04-25 11:52 42.58908 11.70282 32290 ft 414 kts 251°
2026-04-25 11:53 42.58013 11.66586 31822 ft 411 kts 251°
2026-04-25 11:53 42.57129 11.62921 31369 ft 407 kts 251°
2026-04-25 11:53 42.55985 11.59441 30926 ft 402 kts 234°
2026-04-25 11:53 42.54102 11.56707 30493 ft 396 kts 215°
2026-04-25 11:54 42.51668 11.55061 30033 ft 391 kts 194°
2026-04-25 11:54 42.48990 11.54652 29523 ft 387 kts 175°
2026-04-25 11:54 42.43875 11.56607 28540 ft 382 kts 160°
2026-04-25 11:55 42.41377 11.57785 28059 ft 380 kts 160°
2026-04-25 11:55 42.38887 11.58959 27588 ft 377 kts 160°
2026-04-25 11:55 42.36415 11.60120 27121 ft 375 kts 160°
2026-04-25 11:55 42.33950 11.61273 26656 ft 372 kts 161°
2026-04-25 11:56 42.31544 11.62395 26211 ft 369 kts 161°
2026-04-25 11:56 42.29117 11.63526 25770 ft 367 kts 161°
2026-04-25 11:56 42.26716 11.64644 25329 ft 364 kts 161°
2026-04-25 11:56 42.24338 11.65736 25106 ft 355 kts 162°
2026-04-25 11:57 42.22041 11.66740 25104 ft 340 kts 162°
2026-04-25 11:57 42.19810 11.67688 25108 ft 335 kts 162°
2026-04-25 11:57 42.17590 11.68624 25112 ft 334 kts 162°
2026-04-25 11:57 42.15366 11.69562 24896 ft 336 kts 163°
2026-04-25 11:58 42.13133 11.70507 24458 ft 336 kts 162°
2026-04-25 11:58 42.10910 11.71457 24017 ft 335 kts 162°
2026-04-25 11:58 42.08703 11.72473 23564 ft 335 kts 154°
2026-04-25 11:58 42.06884 11.74385 23069 ft 335 kts 127°
2026-04-25 11:59 42.05953 11.77225 22569 ft 336 kts 98°
2026-04-25 11:59 42.06104 11.80339 22081 ft 336 kts 75°
2026-04-25 11:59 42.06767 11.83364 21595 ft 338 kts 69°
2026-04-25 12:00 42.10040 11.87554 20638 ft 337 kts 13°
2026-04-25 12:00 42.12355 11.87645 20166 ft 335 kts 347°
2026-04-25 12:00 42.16819 11.85833 19228 ft 336 kts 339°
2026-04-25 12:01 42.19018 11.84739 18765 ft 337 kts 339°
2026-04-25 12:01 42.21223 11.83653 18302 ft 338 kts 340°
2026-04-25 12:01 42.22693 11.82956 17963 ft 338 kts 340°
2026-04-25 12:01 42.24926 11.81938 17468 ft 339 kts 341°
2026-04-25 12:02 42.29460 11.80188 16479 ft 340 kts 357°
2026-04-25 12:02 42.31767 11.80723 16010 ft 340 kts 25°
2026-04-25 12:02 42.33624 11.82654 15541 ft 339 kts 52°
2026-04-25 12:03 42.34718 11.85458 15086 ft 339 kts 71°
2026-04-25 12:03 42.35314 11.88541 14633 ft 339 kts 80°